Regional Weather Roundup
Issued by NWS

Home | Current Version | Previous Version | Text Only | Print | Product List | Glossary Off
Versions: 1 2 3 4 5 6 7 8 9 10 11 12 13 14 15 16 17 18 19 20 21 22 23 24 25 26 27 28 29 30 31 32 33 34 35 36 37 38 39 40 41 42 43 44 45 46 47 48 49 50

000
ASUS43 KDTX 210401
RWRMI
MICHIGAN HOURLY REGIONAL WEATHER ROUNDUP
NATIONAL WEATHER SERVICE DETROIT/PONTIAC MI
1200 AM EDT MON AUG 21 2017

NOTE: "FAIR" INDICATES FEW OR NO CLOUDS BELOW 12,000 FEET WITH NO
SIGNIFICANT WEATHER AND/OR OBSTRUCTION TO VISIBILITY.

MIZ047>049-052>055-059>063-066>070-074>076-081>083-210500-
SOUTHEAST LOWER MICHIGAN

CITY           SKY/WX    TMP DP  RH WIND       PRES   REMARKS
ADRIAN         CLOUDY    73  68  84 CALM      30.10R
ALMA           PTCLDY    64  62  93 S8        30.07S
ANN ARBOR      CLOUDY    71  67  87 CALM      30.09R
BAD AXE        CLEAR     64  61  89 CALM      30.07S
CARO           CLEAR     61  59  94 CALM      30.06F FOG
DETROIT CITY   MOCLDY    73  65  75 S5        30.09R
DETROIT        CLOUDY    74  69  85 S3        30.10R
FLINT          PTCLDY    70  62  76 S6        30.08R
GROSSE ILE     CLOUDY    73  68  85 CALM      30.08R
HILLSDALE      CLOUDY    64  63  94 SE3       30.10S
HOWELL         CLOUDY    71  64  77 S3        30.09S

CITY           SKY/WX    TMP DP  RH WIND       PRES   REMARKS
JACKSON        MOCLDY    72  64  76 CALM      30.09S
LAMBERTVILLE   PTCLDY    71  69  93 CALM      30.08S
LANSING        PTCLDY    69  62  78 CALM      30.08S
LAPEER         FAIR      64  62  96 CALM      30.08S
MASON          PTCLDY    72  63  73 CALM      30.09R
MONROE         PTCLDY    72  70  93 CALM      30.08S
MT. CLEMENS    CLOUDY    70  69  95 S7        30.07S
PONTIAC        CLOUDY    73  64  73 S5        30.08S
PORT HOPE        N/A     67  61  81 CALM      30.04S
PORT HURON     CLOUDY    66  63  88 CALM      30.09S
TRI CITIES     PTCLDY    69  64  84 SW3       30.06S
MIDLAND        FAIR      64  63  96 CALM      30.05S
TROY           CLOUDY    76  62  62 CALM      30.10S
SAGINAW HB     CLEAR     63  59  88 S5        30.05S
$$
MIZ043>046-050>051-056>058-064>065-071>073-077>080-210500-
SOUTHWEST LOWER MICHIGAN

CITY           SKY/WX    TMP DP  RH WIND       PRES   REMARKS
BATTLE CREEK   CLOUDY    71  65  81 SW3       30.09R
BENTON HARBOR  CLOUDY    76  65  68 SE3       30.05S
BIG RAPIDS     CLEAR     63  60  88 CALM      30.06S
COLDWATER      CLEAR     67  67 100 CALM      30.09S
FREMONT        FAIR      66  65  99 CALM      30.05S
HOLLAND        CLOUDY    70  65  84 CALM      30.06S
GRAND RAPIDS   CLOUDY    69  67  93 SE7       30.06S
IONIA          FAIR      65  62  89 S3        30.07S
KALAMAZOO      CLOUDY    75  64  68 S3        30.08S
LUDINGTON      CLEAR     67  61  80 CALM      30.04R
MARSHALL       PTCLDY    68  66  92 CALM      30.09R
MOUNT PLEASANT CLOUDY    66  63  91 CALM      30.05F
MUSKEGON         N/A     73  64  73 SE3       30.05S
SOUTH HAVEN    CLOUDY    72  68  87 CALM      30.05S
$$
MIZ016>042-210500-
NORTHERN LOWER MICHIGAN

CITY           SKY/WX    TMP DP  RH WIND       PRES   REMARKS
ALPENA         PTCLDY    66  63  90 SW3       30.02S
BEAVER ISLAND  CLEAR     71  64  80 SW14G21   29.98S
BELLAIRE       CLEAR     68  61  78 S3        30.01S
CADILLAC       CLEAR     67  61  81 CALM      30.06S
CHARLEVOIX     PTCLDY    72  63  73 SW7       30.02S
FRANKFORT      MOCLDY    74  64  69 S8        30.02S
GAYLORD        CLEAR     68  59  73 SW10      30.04S
GRAYLING       CLEAR     69  59  69 SW3       30.05S
HARBOR SPRINGS CLEAR     70  64  80 NW7       30.00R
HOUGHTON LAKE  MOCLDY    71  62  73 SW7       30.05F
MANISTEE       PTCLDY    68  62  81 S3        30.03R
OSCODA         CLOUDY    68  62  79 CALM      30.03F
PELLSTON       CLEAR     73  62  68 S5        29.99S
ROGERS CITY    CLEAR     70  62  74 S8        30.00F
TRAVERSE CITY  CLOUDY    74  61  63 VRB3      30.00S
$$
MIZ007>008-015-210500-
EASTERN UPPER MICHIGAN

CITY           SKY/WX    TMP DP  RH WIND       PRES   REMARKS
KINROSS        CLEAR     68  63  84 SW7       29.98S
MACKINAC ISLAN CLEAR     70  63  77 SW7       29.98S
NEWBERRY       CLOUDY    67  66  97 SW6       29.97R
S. S. MARIE    CLEAR     68  62  81 CALM      29.96F
MUNISING         N/A     71  68  90 S3        29.96R
$$
MIZ004>006-011>014-085-210500-
CENTRAL UPPER MICHIGAN

CITY           SKY/WX    TMP DP  RH WIND       PRES   REMARKS
MANISTIQUE     CLOUDY    67  61  81 S6        29.96S HAZE
ESCANABA       CLOUDY    71  68  90 SW3       29.97R
MENOMINEE      CLOUDY    73  68  84 SW6       30.00R
SAWYER-GWINN   CLOUDY    71  63  75 CALM      29.99S
$$
MIZ001>003-009>011-084-210500-
WESTERN UPPER MICHIGAN

CITY           SKY/WX    TMP DP  RH WIND       PRES   REMARKS
IRON MOUNTAIN  CLOUDY    73  65  75 W3        29.98R
HOUGHTON       CLEAR     66  58  75 W10       29.96R
COPPER HARBOR    N/A     72  55  55 NW8       29.93R
IRONWOOD       PTCLDY    64  60  87 W3        30.03R
$$

ABBREVIATIONS USED IN REMARKS
   TC - TEMPERATURE IN CELSIUS
  WCI - WIND CHILL INDEX
   HX - HEAT INDEX
  VSB - VISIBILITY





USA.gov is the U.S. government's official web portal to all federal, state and local government web resources and services.